Terminal Aerodrome Forecast
Issued by NWS

Home | Current Version | Previous Version | Graphics & Text | Print | Product List | Glossary On
Versions: 1 2 3 4 5 6 7 8 9 10 11 12 13 14 15 16 17 18 19 20 21 22 23 24 25 26 27 28 29
000
FTUS45 KGGW 011100
TAFGDV
TAF
KGDV 011123Z 0112/0212 30015G25KT P6SM OVC015
     FM011500 30016G27KT P6SM OVC040
     FM020100 29011KT P6SM SCT060
     FM020600 VRB05KT P6SM SCT080
      AMD LTD TO CLD VIS AND WIND=

USA.gov is the U.S. government's official web portal to all federal, state and local government web resources and services.